TimeEST,TemperatureF,Dew PointF,Humidity,Sea Level PressureIn,VisibilityMPH,Wind Direction,Wind SpeedMPH,Gust SpeedMPH,PrecipitationIn,Events,Conditions,WindDirDegrees,DateUTC
12:54 AM,37.0,30.9,79,29.98,10.0,SW,10.4,-,N/A,,Clear,220,2011-11-10 05:54:00
1:54 AM,35.1,30.0,82,29.98,10.0,SW,10.4,-,N/A,,Clear,220,2011-11-10 06:54:00
2:54 AM,34.0,30.0,85,29.98,10.0,SSW,6.9,-,N/A,,Clear,210,2011-11-10 07:54:00
3:54 AM,33.8,30.2,87,29.95,10.0,SSW,5.8,-,N/A,,Clear,200,2011-11-10 08:54:00
4:54 AM,32.0,30.0,92,29.96,10.0,SSW,8.1,-,N/A,,Clear,210,2011-11-10 09:54:00
5:54 AM,32.0,28.9,88,29.96,9.0,SSW,8.1,-,N/A,,Clear,200,2011-11-10 10:54:00
6:54 AM,32.0,28.0,85,29.96,10.0,SW,11.5,-,N/A,,Clear,220,2011-11-10 11:54:00
7:54 AM,32.0,27.0,82,29.97,10.0,SW,11.5,-,N/A,,Partly Cloudy,220,2011-11-10 12:54:00
8:54 AM,34.0,28.0,79,29.99,10.0,SW,13.8,-,N/A,,Scattered Clouds,230,2011-11-10 13:54:00
9:54 AM,37.0,28.9,73,29.98,10.0,SW,15.0,-,N/A,,Scattered Clouds,230,2011-11-10 14:54:00
10:54 AM,39.0,28.9,67,29.98,10.0,SW,15.0,-,N/A,,Mostly Cloudy,230,2011-11-10 15:54:00
11:54 AM,39.0,28.0,65,29.96,10.0,WSW,13.8,-,N/A,,Overcast,240,2011-11-10 16:54:00
12:54 PM,37.9,28.0,68,29.96,10.0,WSW,13.8,20.7,0.00,,Overcast,240,2011-11-10 17:54:00
1:01 PM,37.4,28.4,70,29.93,10.0,SW,15.0,21.9,N/A,,Overcast,230,2011-11-10 18:01:00
1:37 PM,37.4,30.2,75,29.93,3.0,WSW,11.5,-,0.00,Snow,Light Snow,240,2011-11-10 18:37:00
1:54 PM,37.0,30.0,76,29.95,6.0,WSW,13.8,-,0.00,Snow,Light Snow,250,2011-11-10 18:54:00
2:49 PM,35.6,28.4,75,29.94,0.8,WSW,16.1,-,0.00,Snow,Light Snow,250,2011-11-10 19:49:00
2:54 PM,34.0,30.0,85,29.96,1.5,WSW,13.8,23.0,0.01,Snow,Light Snow,240,2011-11-10 19:54:00
3:01 PM,35.6,30.2,81,29.93,4.0,SW,13.8,-,0.00,Snow,Light Snow,230,2011-11-10 20:01:00
3:54 PM,35.6,30.2,81,29.94,8.0,SW,12.7,-,N/A,Snow,Light Snow,230,2011-11-10 20:54:00
4:10 PM,35.6,30.2,81,29.94,2.5,WSW,18.4,25.3,0.00,Snow,Light Snow,240,2011-11-10 21:10:00
4:19 PM,33.8,30.2,87,29.93,4.0,SW,10.4,25.3,0.01,Snow,Light Snow,230,2011-11-10 21:19:00
4:32 PM,33.8,30.2,87,29.94,9.0,SW,12.7,-,0.01,,Mostly Cloudy,230,2011-11-10 21:32:00
4:37 PM,33.8,30.2,87,29.95,2.0,WSW,13.8,-,0.01,Snow,Light Snow,240,2011-11-10 21:37:00
4:38 PM,33.8,30.2,87,29.95,2.0,WSW,13.8,-,0.01,Snow,Light Snow,240,2011-11-10 21:38:00
4:54 PM,34.0,30.9,89,29.97,7.0,WSW,12.7,21.9,0.02,,Overcast,250,2011-11-10 21:54:00
5:17 PM,33.8,30.2,87,29.96,2.0,West,5.8,-,0.00,Snow,Light Snow,260,2011-11-10 22:17:00
5:27 PM,33.8,30.2,87,29.96,1.0,WNW,15.0,19.6,0.02,Snow,Light Snow,290,2011-11-10 22:27:00
5:54 PM,34.0,30.9,89,29.97,2.0,West,12.7,17.3,0.06,Snow,Light Snow,260,2011-11-10 22:54:00
6:02 PM,33.8,30.2,87,29.95,6.0,WSW,10.4,-,0.00,Snow,Light Snow,250,2011-11-10 23:02:00
6:42 PM,33.8,30.2,87,29.95,2.5,SSW,10.4,-,0.02,Snow,Light Snow,210,2011-11-10 23:42:00
6:48 PM,33.8,30.2,87,29.95,5.0,SW,10.4,-,0.02,Snow,Light Snow,220,2011-11-10 23:48:00
6:49 PM,33.1,30.9,92,29.97,6.0,SW,10.4,-,0.02,Snow,Light Snow,220,2011-11-10 23:49:00
7:31 PM,33.8,30.2,87,29.95,9.0,SW,12.7,-,0.00,Snow,Light Snow,220,2011-11-11 00:31:00
7:54 PM,34.0,30.9,89,29.97,9.0,SW,12.7,-,0.00,Snow,Light Snow,230,2011-11-11 00:54:00
8:54 PM,37.0,30.0,76,29.97,10.0,West,13.8,-,0.00,,Overcast,280,2011-11-11 01:54:00
9:54 PM,37.0,28.9,73,29.99,10.0,WNW,13.8,20.7,0.00,,Overcast,290,2011-11-11 02:54:00
10:54 PM,37.9,28.0,68,30.00,10.0,WNW,12.7,-,0.00,,Overcast,290,2011-11-11 03:54:00
11:54 PM,37.9,28.0,68,30.00,10.0,West,12.7,-,0.00,,Overcast,280,2011-11-11 04:54:00